Time,TemperatureF,DewpointF,PressureIn,WindDirection,WindDirectionDegrees,WindSpeedMPH,WindSpeedGustMPH,Humidity,HourlyPrecipIn,Conditions,Clouds,dailyrainin,SoftwareType,DateUTC
2013-01-22 00:00:00,19.0,-11.0,28.88,East,90,4.9,11.4,25,0.00,,---,0.00,VWS V13.01,2013-01-22 05:00:00,
2013-01-22 00:02:00,18.9,-11.1,28.88,SE,135,6.3,11.4,25,0.00,,---,0.00,VWS V13.01,2013-01-22 05:02:00,
2013-01-22 00:13:00,18.5,-11.4,28.88,ESE,112,3.6,3.6,25,0.00,,---,0.00,VWS V13.01,2013-01-22 05:13:00,
2013-01-22 00:14:00,18.5,-11.4,28.88,NE,45,2.7,4.0,25,0.00,,---,0.00,VWS V13.01,2013-01-22 05:14:00,
2013-01-22 00:19:00,18.5,-11.4,28.91,NE,45,4.0,8.1,25,0.00,,---,0.00,VWS V13.01,2013-01-22 05:19:00,
2013-01-22 00:24:00,18.3,-11.6,28.91,East,90,0.0,5.4,25,0.00,,---,0.00,VWS V13.01,2013-01-22 05:24:00,
2013-01-22 00:29:00,18.3,-11.6,28.91,SE,135,7.2,8.7,25,0.00,,---,0.00,VWS V13.01,2013-01-22 05:29:00,
2013-01-22 00:34:00,17.8,-12.1,28.91,East,90,4.9,8.7,25,0.00,,---,0.00,VWS V13.01,2013-01-22 05:34:00,
2013-01-22 00:39:00,17.8,-12.1,28.91,SE,135,5.4,8.7,25,0.00,,---,0.00,VWS V13.01,2013-01-22 05:39:00,
2013-01-22 00:45:00,17.4,-11.6,28.91,East,90,5.4,8.3,26,0.00,,---,0.00,VWS V13.01,2013-01-22 05:45:00,
2013-01-22 00:50:00,17.2,-11.8,28.91,East,90,4.9,8.7,26,0.00,,---,0.00,VWS V13.01,2013-01-22 05:50:00,
2013-01-22 00:55:00,17.1,-11.9,28.91,SE,135,2.2,8.7,26,0.00,,---,0.00,VWS V13.01,2013-01-22 05:55:00,
2013-01-22 01:00:00,16.9,-12.1,28.91,SE,135,5.4,8.7,26,0.00,,---,0.00,VWS V13.01,2013-01-22 06:00:00,
2013-01-22 01:05:00,16.7,-12.2,28.91,East,90,4.0,6.7,26,0.00,,---,0.00,VWS V13.01,2013-01-22 06:05:00,
2013-01-22 01:10:00,16.7,-12.2,28.91,SSE,158,3.1,6.7,26,0.00,,---,0.00,VWS V13.01,2013-01-22 06:10:00,
2013-01-22 01:15:00,16.7,-12.2,28.91,SE,135,10.1,10.1,26,0.00,,---,0.00,VWS V13.01,2013-01-22 06:15:00,
2013-01-22 01:20:00,16.5,-12.4,28.91,East,90,3.1,10.1,26,0.00,,---,0.00,VWS V13.01,2013-01-22 06:20:00,
2013-01-22 01:25:00,16.2,-12.7,28.91,SE,135,0.0,3.6,26,0.00,,---,0.00,VWS V13.01,2013-01-22 06:25:00,
2013-01-22 01:30:00,16.2,-12.7,28.91,SE,135,0.0,12.8,26,0.00,,---,0.00,VWS V13.01,2013-01-22 06:30:00,
2013-01-22 01:35:00,16.0,-12.8,28.91,ESE,112,3.1,12.8,26,0.00,,---,0.00,VWS V13.01,2013-01-22 06:35:00,
2013-01-22 01:40:00,16.0,-12.8,28.91,South,180,7.2,12.8,26,0.00,,---,0.00,VWS V13.01,2013-01-22 06:40:00,
2013-01-22 01:46:00,16.0,-12.8,28.91,SE,135,7.6,8.1,26,0.00,,---,0.00,VWS V13.01,2013-01-22 06:46:00,
2013-01-22 01:51:00,16.0,-12.8,28.91,SE,135,5.8,13.2,26,0.00,,---,0.00,VWS V13.01,2013-01-22 06:51:00,
2013-01-22 01:56:00,15.8,-13.0,28.91,South,180,8.1,13.2,26,0.00,,---,0.00,VWS V13.01,2013-01-22 06:56:00,
2013-01-22 02:01:00,15.8,-13.0,28.94,South,180,8.1,13.2,26,0.00,,---,0.00,VWS V13.01,2013-01-22 07:01:00,
2013-01-22 02:06:00,15.4,-13.3,28.94,SSE,158,7.6,7.6,26,0.00,,---,0.00,VWS V13.01,2013-01-22 07:06:00,
2013-01-22 02:11:00,15.3,-13.5,28.94,SE,135,2.2,7.6,26,0.00,,---,0.00,VWS V13.01,2013-01-22 07:11:00,
2013-01-22 02:16:00,15.3,-13.5,28.94,East,90,6.3,7.6,26,0.00,,---,0.00,VWS V13.01,2013-01-22 07:16:00,
2013-01-22 02:21:00,14.9,-13.8,28.94,South,180,2.2,7.6,26,0.00,,---,0.00,VWS V13.01,2013-01-22 07:21:00,
2013-01-22 02:27:00,14.9,-13.8,28.94,SE,135,0.0,4.0,26,0.00,,---,0.00,VWS V13.01,2013-01-22 07:27:00,
2013-01-22 02:32:00,14.5,-14.1,28.94,SE,135,4.9,4.9,26,0.00,,---,0.00,VWS V13.01,2013-01-22 07:32:00,
2013-01-22 02:37:00,14.5,-14.1,28.94,SE,135,7.2,8.1,26,0.00,,---,0.00,VWS V13.01,2013-01-22 07:37:00,
2013-01-22 02:42:00,14.5,-14.1,28.94,East,90,5.4,8.1,26,0.00,,---,0.00,VWS V13.01,2013-01-22 07:42:00,
2013-01-22 02:47:00,14.4,-14.2,28.94,SSE,158,4.9,8.1,26,0.00,,---,0.00,VWS V13.01,2013-01-22 07:47:00,
2013-01-22 02:52:00,14.4,-14.2,28.94,SE,135,4.0,8.1,26,0.00,,---,0.00,VWS V13.01,2013-01-22 07:52:00,
2013-01-22 02:57:00,14.2,-14.4,28.94,SSE,158,12.3,12.3,26,0.00,,---,0.00,VWS V13.01,2013-01-22 07:57:00,
2013-01-22 03:02:00,14.2,-14.4,28.94,East,90,4.9,12.3,26,0.00,,---,0.00,VWS V13.01,2013-01-22 08:02:00,
2013-01-22 03:07:00,14.0,-13.8,28.94,SE,135,4.9,5.8,27,0.00,,---,0.00,VWS V13.01,2013-01-22 08:07:00,
2013-01-22 03:12:00,13.8,-14.0,28.94,SE,135,4.9,7.2,27,0.00,,---,0.00,VWS V13.01,2013-01-22 08:12:00,
2013-01-22 03:18:00,13.8,-14.0,28.94,South,180,3.6,8.3,27,0.00,,---,0.00,VWS V13.01,2013-01-22 08:18:00,
2013-01-22 03:23:00,13.6,-14.1,28.94,SE,135,4.0,5.4,27,0.00,,---,0.00,VWS V13.01,2013-01-22 08:23:00,
2013-01-22 03:28:00,13.6,-14.1,28.94,SE,135,7.2,7.2,27,0.00,,---,0.00,VWS V13.01,2013-01-22 08:28:00,
2013-01-22 03:33:00,13.5,-14.3,28.94,SE,135,4.9,7.2,27,0.00,,---,0.00,VWS V13.01,2013-01-22 08:33:00,
2013-01-22 03:38:00,13.5,-14.3,28.94,SE,135,3.1,7.2,27,0.00,,---,0.00,VWS V13.01,2013-01-22 08:38:00,
2013-01-22 03:43:00,13.3,-14.4,28.94,SE,135,6.3,6.3,27,0.00,,---,0.00,VWS V13.01,2013-01-22 08:43:00,
2013-01-22 03:48:00,13.3,-14.4,28.94,East,90,5.8,6.3,27,0.00,,---,0.00,VWS V13.01,2013-01-22 08:48:00,
2013-01-22 03:53:00,13.3,-14.4,28.94,SE,135,4.9,6.3,27,0.00,,---,0.00,VWS V13.01,2013-01-22 08:53:00,
2013-01-22 03:58:00,13.1,-14.6,28.94,SE,135,3.6,6.3,27,0.00,,---,0.00,VWS V13.01,2013-01-22 08:58:00,
2013-01-22 04:03:00,13.1,-14.6,28.94,SE,135,5.4,5.4,27,0.00,,---,0.00,VWS V13.01,2013-01-22 09:03:00,
2013-01-22 04:09:00,12.9,-14.8,28.94,East,90,0.0,5.4,27,0.00,,---,0.00,VWS V13.01,2013-01-22 09:09:00,
2013-01-22 04:14:00,12.9,-14.8,28.94,SE,135,2.7,5.4,27,0.00,,---,0.00,VWS V13.01,2013-01-22 09:14:00,
2013-01-22 04:19:00,12.9,-14.8,28.94,East,90,3.6,8.1,27,0.00,,---,0.00,VWS V13.01,2013-01-22 09:19:00,
2013-01-22 04:24:00,12.7,-14.9,28.94,East,90,4.5,5.4,27,0.00,,---,0.00,VWS V13.01,2013-01-22 09:24:00,
2013-01-22 04:29:00,12.6,-15.1,28.94,East,90,3.1,7.2,27,0.00,,---,0.00,VWS V13.01,2013-01-22 09:29:00,
2013-01-22 04:34:00,12.6,-15.1,28.94,SW,225,2.7,7.2,27,0.00,,---,0.00,VWS V13.01,2013-01-22 09:34:00,
2013-01-22 04:39:00,12.6,-15.1,28.94,SE,135,3.6,7.2,27,0.00,,---,0.00,VWS V13.01,2013-01-22 09:39:00,
2013-01-22 04:44:00,12.2,-15.4,28.94,SE,135,0.0,6.3,27,0.00,,---,0.00,VWS V13.01,2013-01-22 09:44:00,
2013-01-22 04:49:00,12.2,-15.4,28.94,SSE,158,4.0,8.1,27,0.00,,---,0.00,VWS V13.01,2013-01-22 09:49:00,
2013-01-22 04:54:00,12.0,-15.5,28.94,East,90,2.2,8.1,27,0.00,,---,0.00,VWS V13.01,2013-01-22 09:54:00,
2013-01-22 04:59:00,12.0,-15.5,28.94,SE,135,3.6,8.1,27,0.00,,---,0.00,VWS V13.01,2013-01-22 09:59:00,
2013-01-22 05:05:00,12.0,-15.5,28.94,East,90,6.3,7.6,27,0.00,,---,0.00,VWS V13.01,2013-01-22 10:05:00,
2013-01-22 05:10:00,11.8,-15.7,28.94,SE,135,5.8,7.6,27,0.00,,---,0.00,VWS V13.01,2013-01-22 10:10:00,
2013-01-22 05:15:00,11.8,-15.7,28.94,ESE,112,5.8,7.6,27,0.00,,---,0.00,VWS V13.01,2013-01-22 10:15:00,
2013-01-22 05:20:00,11.7,-15.9,28.97,East,90,0.0,7.6,27,0.00,,---,0.00,VWS V13.01,2013-01-22 10:20:00,
2013-01-22 05:25:00,11.3,-16.2,28.97,ENE,68,3.6,3.6,27,0.00,,---,0.00,VWS V13.01,2013-01-22 10:25:00,
2013-01-22 05:30:00,11.5,-16.0,28.97,East,90,4.9,5.4,27,0.00,,---,0.00,VWS V13.01,2013-01-22 10:30:00,
2013-01-22 05:35:00,11.5,-16.0,28.97,NE,45,8.1,8.1,27,0.00,,---,0.00,VWS V13.01,2013-01-22 10:35:00,
2013-01-22 05:40:00,11.3,-16.2,28.97,ENE,68,3.1,8.1,27,0.00,,---,0.00,VWS V13.01,2013-01-22 10:40:00,
2013-01-22 05:45:00,10.9,-16.5,28.97,East,90,2.7,7.6,27,0.00,,---,0.00,VWS V13.01,2013-01-22 10:45:00,
2013-01-22 05:50:00,10.9,-16.5,28.97,South,180,2.2,7.6,27,0.00,,---,0.00,VWS V13.01,2013-01-22 10:50:00,
2013-01-22 05:56:00,10.8,-16.6,28.97,SE,135,4.9,8.3,27,0.00,,---,0.00,VWS V13.01,2013-01-22 10:56:00,
2013-01-22 06:01:00,10.8,-16.6,28.97,ESE,112,4.9,8.3,27,0.00,,---,0.00,VWS V13.01,2013-01-22 11:01:00,
2013-01-22 06:06:00,10.6,-16.8,28.97,SE,135,5.8,11.0,27,0.00,,---,0.00,VWS V13.01,2013-01-22 11:06:00,
2013-01-22 06:11:00,10.6,-16.8,28.97,SE,135,0.0,11.0,27,0.00,,---,0.00,VWS V13.01,2013-01-22 11:11:00,
2013-01-22 06:17:00,10.4,-17.0,28.97,East,90,3.1,11.0,27,0.00,,---,0.00,VWS V13.01,2013-01-22 11:17:00,
2013-01-22 06:22:00,10.4,-17.0,28.97,ESE,112,7.2,12.3,27,0.00,,---,0.00,VWS V13.01,2013-01-22 11:22:00,
2013-01-22 06:27:00,10.2,-17.1,28.97,SSE,158,3.1,11.0,27,0.00,,---,0.00,VWS V13.01,2013-01-22 11:27:00,
2013-01-22 06:32:00,10.2,-17.1,28.97,South,180,0.0,11.0,27,0.00,,---,0.00,VWS V13.01,2013-01-22 11:32:00,
2013-01-22 06:38:00,10.0,-17.3,28.97,SE,135,7.2,11.0,27,0.00,,---,0.00,VWS V13.01,2013-01-22 11:38:00,
2013-01-22 06:43:00,10.0,-17.3,28.97,South,180,2.7,2.7,27,0.00,,---,0.00,VWS V13.01,2013-01-22 11:43:00,
2013-01-22 06:48:00,9.9,-17.4,29.00,SE,135,5.8,7.6,27,0.00,,---,0.00,VWS V13.01,2013-01-22 11:48:00,
2013-01-22 06:53:00,9.9,-17.4,29.00,SE,135,2.7,7.6,27,0.00,,---,0.00,VWS V13.01,2013-01-22 11:53:00,
2013-01-22 06:59:00,9.7,-17.6,29.00,South,180,4.9,7.6,27,0.00,,---,0.00,VWS V13.01,2013-01-22 11:59:00,
2013-01-22 07:04:00,9.9,-17.4,29.00,East,90,7.2,7.2,27,0.00,,---,0.00,VWS V13.01,2013-01-22 12:04:00,
2013-01-22 07:09:00,9.7,-17.6,29.00,SE,135,6.3,7.2,27,0.00,,---,0.00,VWS V13.01,2013-01-22 12:09:00,
2013-01-22 07:14:00,9.5,-17.7,29.00,South,180,4.9,7.6,27,0.00,,---,0.00,VWS V13.01,2013-01-22 12:14:00,
2013-01-22 07:20:00,9.5,-17.7,29.00,West,270,3.6,15.4,27,0.00,,---,0.00,VWS V13.01,2013-01-22 12:20:00,
2013-01-22 07:25:00,9.5,-17.7,29.00,West,270,4.9,4.9,27,0.00,,---,0.00,VWS V13.01,2013-01-22 12:25:00,
2013-01-22 07:30:00,9.5,-17.7,29.00,East,90,4.0,7.6,27,0.00,,---,0.00,VWS V13.01,2013-01-22 12:30:00,
2013-01-22 07:35:00,9.3,-17.9,29.00,East,90,2.7,8.1,27,0.00,,---,0.00,VWS V13.01,2013-01-22 12:35:00,
2013-01-22 07:40:00,9.3,-17.9,29.00,East,90,4.0,8.1,27,0.00,,---,0.00,VWS V13.01,2013-01-22 12:40:00,
2013-01-22 07:46:00,9.3,-17.9,29.03,East,90,2.7,4.0,27,0.00,,---,0.00,VWS V13.01,2013-01-22 12:46:00,
2013-01-22 07:51:00,9.5,-17.7,29.03,North,0,3.6,4.9,27,0.00,,---,0.00,VWS V13.01,2013-01-22 12:51:00,
2013-01-22 07:57:00,9.5,-17.7,29.03,NW,315,3.1,4.9,27,0.00,,---,0.00,VWS V13.01,2013-01-22 12:57:00,
2013-01-22 08:02:00,9.7,-17.6,29.03,SE,135,5.8,5.8,27,0.00,,---,0.00,VWS V13.01,2013-01-22 13:02:00,
2013-01-22 08:08:00,9.5,-17.7,29.03,SE,135,13.2,13.2,27,0.00,,---,0.00,VWS V13.01,2013-01-22 13:08:00,
2013-01-22 08:13:00,9.5,-17.7,29.03,ENE,68,3.6,13.2,27,0.00,,---,0.00,VWS V13.01,2013-01-22 13:13:00,
2013-01-22 08:19:00,9.5,-17.7,29.03,South,180,3.6,13.2,27,0.00,,---,0.00,VWS V13.01,2013-01-22 13:19:00,
2013-01-22 08:24:00,9.7,-17.6,29.03,NNE,22,6.3,6.3,27,0.00,,---,0.00,VWS V13.01,2013-01-22 13:24:00,
2013-01-22 08:29:00,9.7,-17.6,29.03,NE,45,4.0,10.1,27,0.00,,---,0.00,VWS V13.01,2013-01-22 13:29:00,
2013-01-22 08:34:00,9.9,-17.4,29.03,East,90,2.2,10.1,27,0.00,,---,0.00,VWS V13.01,2013-01-22 13:34:00,
2013-01-22 08:39:00,10.0,-17.3,29.03,SE,135,5.8,10.1,27,0.00,,---,0.00,VWS V13.01,2013-01-22 13:39:00,
2013-01-22 08:44:00,10.0,-17.3,29.03,East,90,6.3,6.3,27,0.00,,---,0.00,VWS V13.01,2013-01-22 13:44:00,
2013-01-22 08:50:00,10.0,-17.3,29.06,ENE,68,3.6,9.2,27,0.00,,---,0.00,VWS V13.01,2013-01-22 13:50:00,
2013-01-22 08:55:00,10.4,-17.0,29.06,East,90,7.2,9.2,27,0.00,,---,0.00,VWS V13.01,2013-01-22 13:55:00,
2013-01-22 09:00:00,10.4,-17.0,29.06,East,90,5.4,9.2,27,0.00,,---,0.00,VWS V13.01,2013-01-22 14:00:00,
2013-01-22 09:06:00,10.6,-16.8,29.03,West,270,3.1,7.2,27,0.00,,---,0.00,VWS V13.01,2013-01-22 14:06:00,
2013-01-22 09:12:00,10.6,-16.8,29.03,East,90,5.4,7.2,27,0.00,,---,0.00,VWS V13.01,2013-01-22 14:12:00,
2013-01-22 09:18:00,10.6,-16.8,29.06,NE,45,5.4,7.2,27,0.00,,---,0.00,VWS V13.01,2013-01-22 14:18:00,
2013-01-22 09:23:00,10.8,-16.6,29.06,East,90,5.4,5.4,27,0.00,,---,0.00,VWS V13.01,2013-01-22 14:23:00,
2013-01-22 09:28:00,11.1,-16.3,29.06,ESE,112,2.2,7.2,27,0.00,,---,0.00,VWS V13.01,2013-01-22 14:28:00,
2013-01-22 09:33:00,11.7,-15.9,29.06,SE,135,5.8,8.1,27,0.00,,---,0.00,VWS V13.01,2013-01-22 14:33:00,
2013-01-22 09:39:00,12.0,-15.5,29.06,SE,135,8.7,8.7,27,0.00,,---,0.00,VWS V13.01,2013-01-22 14:39:00,
2013-01-22 09:44:00,11.8,-15.7,29.06,NW,315,3.1,5.8,27,0.00,,---,0.00,VWS V13.01,2013-01-22 14:44:00,
2013-01-22 09:49:00,12.0,-15.5,29.06,East,90,3.6,9.2,27,0.00,,---,0.00,VWS V13.01,2013-01-22 14:49:00,
2013-01-22 09:54:00,12.9,-14.8,29.06,SE,135,6.7,9.2,27,0.00,,---,0.00,VWS V13.01,2013-01-22 14:54:00,
2013-01-22 09:59:00,13.1,-14.6,29.06,East,90,3.1,9.2,27,0.00,,---,0.00,VWS V13.01,2013-01-22 14:59:00,
2013-01-22 10:05:00,13.3,-14.4,29.09,SE,135,12.8,12.8,27,0.00,,---,0.00,VWS V13.01,2013-01-22 15:05:00,
2013-01-22 10:10:00,13.1,-14.6,29.09,South,180,7.2,12.8,27,0.00,,---,0.00,VWS V13.01,2013-01-22 15:10:00,
2013-01-22 10:15:00,12.9,-14.8,29.09,West,270,0.0,12.8,27,0.00,,---,0.00,VWS V13.01,2013-01-22 15:15:00,
2013-01-22 10:20:00,13.5,-14.3,29.09,South,180,6.3,12.8,27,0.00,,---,0.00,VWS V13.01,2013-01-22 15:20:00,
2013-01-22 10:25:00,13.8,-14.0,29.09,WNW,292,7.6,7.6,27,0.00,,---,0.00,VWS V13.01,2013-01-22 15:25:00,
2013-01-22 10:31:00,13.8,-14.0,29.09,SE,135,3.1,7.6,27,0.00,,---,0.00,VWS V13.01,2013-01-22 15:31:00,
2013-01-22 10:36:00,15.1,-13.6,29.09,South,180,4.9,7.6,26,0.00,,---,0.00,VWS V13.01,2013-01-22 15:36:00,
2013-01-22 10:42:00,15.1,-13.6,29.09,South,180,7.6,10.1,26,0.00,,---,0.00,VWS V13.01,2013-01-22 15:42:00,
2013-01-22 10:47:00,14.5,-14.1,29.09,East,90,5.4,10.1,26,0.00,,---,0.00,VWS V13.01,2013-01-22 15:47:00,
2013-01-22 10:52:00,14.9,-13.8,29.09,West,270,8.1,10.1,26,0.00,,---,0.00,VWS V13.01,2013-01-22 15:52:00,
2013-01-22 10:58:00,15.1,-13.6,29.09,South,180,2.7,10.1,26,0.00,,---,0.00,VWS V13.01,2013-01-22 15:58:00,
2013-01-22 11:03:00,14.5,-14.1,29.09,SSE,158,5.4,5.4,26,0.00,,---,0.00,VWS V13.01,2013-01-22 16:03:00,
2013-01-22 11:08:00,14.7,-13.9,29.09,ESE,112,0.0,5.8,26,0.00,,---,0.00,VWS V13.01,2013-01-22 16:08:00,
2013-01-22 11:13:00,15.1,-13.6,29.09,NE,45,0.0,5.8,26,0.00,,---,0.00,VWS V13.01,2013-01-22 16:13:00,
2013-01-22 11:19:00,14.9,-13.8,29.09,South,180,2.2,9.6,26,0.00,,---,0.00,VWS V13.01,2013-01-22 16:19:00,
2013-01-22 11:24:00,15.8,-13.0,29.09,SW,225,7.6,8.1,26,0.00,,---,0.00,VWS V13.01,2013-01-22 16:24:00,
2013-01-22 11:29:00,14.2,-14.4,29.09,East,90,3.1,11.0,26,0.00,,---,0.00,VWS V13.01,2013-01-22 16:29:00,
2013-01-22 11:34:00,16.5,-12.4,29.06,SE,135,8.3,11.0,26,0.00,,---,0.00,VWS V13.01,2013-01-22 16:34:00,
2013-01-22 11:39:00,16.7,-12.2,29.06,NE,45,5.8,11.0,26,0.00,,---,0.00,VWS V13.01,2013-01-22 16:39:00,
2013-01-22 11:45:00,16.9,-12.1,29.06,SE,135,5.4,5.4,26,0.00,,---,0.00,VWS V13.01,2013-01-22 16:45:00,
2013-01-22 11:50:00,16.9,-12.1,29.06,South,180,5.8,8.7,26,0.00,,---,0.00,VWS V13.01,2013-01-22 16:50:00,
2013-01-22 11:55:00,17.4,-11.6,29.06,South,180,4.0,12.3,26,0.00,,---,0.00,VWS V13.01,2013-01-22 16:55:00,
2013-01-22 12:00:00,16.5,-12.4,29.06,SW,225,7.2,12.3,26,0.00,,---,0.00,VWS V13.01,2013-01-22 17:00:00,
2013-01-22 12:06:00,16.7,-12.2,29.06,West,270,7.2,8.3,26,0.00,,---,0.00,VWS V13.01,2013-01-22 17:06:00,
2013-01-22 12:12:00,16.9,-12.1,29.06,SE,135,3.6,8.3,26,0.00,,---,0.00,VWS V13.01,2013-01-22 17:12:00,
2013-01-22 12:17:00,16.7,-12.2,29.06,North,0,8.7,8.7,26,0.00,,---,0.00,VWS V13.01,2013-01-22 17:17:00,
2013-01-22 12:22:00,16.9,-12.1,29.06,NE,45,2.2,8.7,26,0.00,,---,0.00,VWS V13.01,2013-01-22 17:22:00,
2013-01-22 12:27:00,18.3,-11.6,29.06,West,270,3.6,5.8,25,0.00,,---,0.00,VWS V13.01,2013-01-22 17:27:00,
2013-01-22 12:33:00,17.1,-11.9,29.06,SSE,158,4.9,8.3,26,0.00,,---,0.00,VWS V13.01,2013-01-22 17:33:00,
2013-01-22 12:38:00,17.4,-11.6,29.06,NW,315,4.0,9.6,26,0.00,,---,0.00,VWS V13.01,2013-01-22 17:38:00,
2013-01-22 12:43:00,17.4,-11.6,29.06,SE,135,4.0,4.0,26,0.00,,---,0.00,VWS V13.01,2013-01-22 17:43:00,
2013-01-22 12:48:00,16.3,-12.5,29.03,South,180,9.2,13.2,26,0.00,,---,0.00,VWS V13.01,2013-01-22 17:48:00,
2013-01-22 12:54:00,16.7,-12.2,29.03,SSW,202,2.7,13.2,26,0.00,,---,0.00,VWS V13.01,2013-01-22 17:54:00,
2013-01-22 12:59:00,18.1,-11.8,29.03,SSE,158,10.5,13.2,25,0.00,,---,0.00,VWS V13.01,2013-01-22 17:59:00,
2013-01-22 13:04:00,17.4,-11.6,29.06,South,180,13.2,13.2,26,0.00,,---,0.00,VWS V13.01,2013-01-22 18:04:00,
2013-01-22 13:10:00,17.6,-11.4,29.06,WNW,292,6.3,13.2,26,0.00,,---,0.00,VWS V13.01,2013-01-22 18:10:00,
2013-01-22 13:15:00,17.1,-11.9,29.06,South,180,6.3,13.2,26,0.00,,---,0.00,VWS V13.01,2013-01-22 18:15:00,
2013-01-22 13:20:00,17.6,-11.4,29.03,SE,135,8.7,14.5,26,0.00,,---,0.00,VWS V13.01,2013-01-22 18:20:00,
2013-01-22 13:25:00,17.8,-12.1,29.03,SE,135,5.4,8.1,25,0.00,,---,0.00,VWS V13.01,2013-01-22 18:25:00,
2013-01-22 13:31:00,18.1,-11.8,29.03,South,180,8.1,12.3,25,0.00,,---,0.00,VWS V13.01,2013-01-22 18:31:00,
2013-01-22 13:37:00,18.1,-11.8,29.06,SSE,158,8.1,12.3,25,0.00,,---,0.00,VWS V13.01,2013-01-22 18:37:00,
2013-01-22 13:42:00,18.1,-11.8,29.06,SSW,202,7.6,12.3,25,0.00,,---,0.00,VWS V13.01,2013-01-22 18:42:00,
2013-01-22 13:47:00,17.1,-11.9,29.03,SW,225,5.4,8.7,26,0.00,,---,0.00,VWS V13.01,2013-01-22 18:47:00,
2013-01-22 13:52:00,17.2,-11.8,29.03,South,180,2.2,8.7,26,0.00,,---,0.00,VWS V13.01,2013-01-22 18:52:00,
2013-01-22 13:58:00,17.4,-11.6,29.03,ESE,112,3.6,19.7,26,0.00,,---,0.00,VWS V13.01,2013-01-22 18:58:00,
2013-01-22 14:03:00,16.2,-12.7,29.06,NW,315,4.0,4.0,26,0.00,,---,0.00,VWS V13.01,2013-01-22 19:03:00,
2013-01-22 14:08:00,15.8,-13.0,29.06,WSW,248,3.6,10.1,26,0.00,,---,0.00,VWS V13.01,2013-01-22 19:08:00,
2013-01-22 14:13:00,16.2,-12.7,29.06,SW,225,3.6,10.1,26,0.00,,---,0.00,VWS V13.01,2013-01-22 19:13:00,
2013-01-22 14:18:00,16.7,-12.2,29.06,SE,135,2.7,10.1,26,0.00,,---,0.00,VWS V13.01,2013-01-22 19:18:00,
2013-01-22 14:24:00,17.2,-11.8,29.06,South,180,4.0,5.8,26,0.00,,---,0.00,VWS V13.01,2013-01-22 19:24:00,
2013-01-22 14:29:00,16.9,-12.1,29.06,South,180,4.0,8.7,26,0.00,,---,0.00,VWS V13.01,2013-01-22 19:29:00,
2013-01-22 14:34:00,16.5,-12.4,29.06,South,180,4.9,9.6,26,0.00,,---,0.00,VWS V13.01,2013-01-22 19:34:00,
2013-01-22 14:39:00,15.4,-13.3,29.06,ESE,112,2.2,9.6,26,0.00,,---,0.00,VWS V13.01,2013-01-22 19:39:00,
2013-01-22 14:45:00,16.0,-12.8,29.06,SSE,158,6.3,6.7,26,0.00,,---,0.00,VWS V13.01,2013-01-22 19:45:00,
2013-01-22 14:50:00,16.0,-12.8,29.06,West,270,3.6,6.7,26,0.00,,---,0.00,VWS V13.01,2013-01-22 19:50:00,
2013-01-22 14:56:00,16.2,-12.7,29.06,SE,135,4.0,12.3,26,0.00,,---,0.00,VWS V13.01,2013-01-22 19:56:00,
2013-01-22 15:01:00,16.5,-12.4,29.06,SE,135,3.6,12.3,26,0.00,,---,0.00,VWS V13.01,2013-01-22 20:01:00,
2013-01-22 15:06:00,16.5,-12.4,29.06,SSE,158,5.4,8.7,26,0.00,,---,0.00,VWS V13.01,2013-01-22 20:06:00,
2013-01-22 15:11:00,16.5,-12.4,29.06,East,90,3.1,8.7,26,0.00,,---,0.00,VWS V13.01,2013-01-22 20:11:00,
2013-01-22 15:16:00,16.7,-12.2,29.06,NNW,338,5.4,8.7,26,0.00,,---,0.00,VWS V13.01,2013-01-22 20:16:00,
2013-01-22 15:21:00,16.2,-12.7,29.06,SW,225,2.2,8.7,26,0.00,,---,0.00,VWS V13.01,2013-01-22 20:21:00,
2013-01-22 15:27:00,16.5,-12.4,29.06,SW,225,4.9,4.9,26,0.00,,---,0.00,VWS V13.01,2013-01-22 20:27:00,
2013-01-22 15:32:00,16.9,-12.1,29.06,South,180,4.9,6.7,26,0.00,,---,0.00,VWS V13.01,2013-01-22 20:32:00,
2013-01-22 15:37:00,16.9,-12.1,29.06,West,270,4.9,8.1,26,0.00,,---,0.00,VWS V13.01,2013-01-22 20:37:00,
2013-01-22 15:42:00,16.5,-12.4,29.06,SW,225,4.0,4.0,26,0.00,,---,0.00,VWS V13.01,2013-01-22 20:42:00,
2013-01-22 15:48:00,15.6,-13.1,29.06,East,90,4.9,8.7,26,0.00,,---,0.00,VWS V13.01,2013-01-22 20:48:00,
2013-01-22 15:53:00,16.2,-12.7,29.06,SE,135,8.1,8.7,26,0.00,,---,0.00,VWS V13.01,2013-01-22 20:53:00,
2013-01-22 15:58:00,16.2,-12.7,29.06,SE,135,5.4,8.7,26,0.00,,---,0.00,VWS V13.01,2013-01-22 20:58:00,
2013-01-22 16:03:00,16.2,-12.7,29.06,South,180,12.8,12.8,26,0.00,,---,0.00,VWS V13.01,2013-01-22 21:03:00,
2013-01-22 16:08:00,16.0,-12.8,29.06,South,180,6.3,12.8,26,0.00,,---,0.00,VWS V13.01,2013-01-22 21:08:00,
2013-01-22 16:14:00,15.8,-13.0,29.06,SW,225,2.7,12.8,26,0.00,,---,0.00,VWS V13.01,2013-01-22 21:14:00,
2013-01-22 16:19:00,15.4,-13.3,29.06,SE,135,11.0,12.8,26,0.00,,---,0.00,VWS V13.01,2013-01-22 21:19:00,
2013-01-22 16:24:00,14.9,-13.8,29.06,South,180,4.9,4.9,26,0.00,,---,0.00,VWS V13.01,2013-01-22 21:24:00,
2013-01-22 16:29:00,15.1,-13.6,29.06,SSE,158,10.1,10.1,26,0.00,,---,0.00,VWS V13.01,2013-01-22 21:29:00,
2013-01-22 16:33:00,14.5,-14.1,29.09,SE,135,5.4,10.1,26,0.00,,---,0.00,VWS V13.01,2013-01-22 21:33:00,
2013-01-22 16:38:00,14.9,-13.8,29.09,SE,135,4.9,10.1,26,0.00,,---,0.00,VWS V13.01,2013-01-22 21:38:00,
2013-01-22 16:44:00,14.9,-13.8,29.09,NE,45,3.1,5.4,26,0.00,,---,0.00,VWS V13.01,2013-01-22 21:44:00,
2013-01-22 16:49:00,15.1,-13.6,29.09,ENE,68,3.6,5.4,26,0.00,,---,0.00,VWS V13.01,2013-01-22 21:49:00,
2013-01-22 16:54:00,15.1,-13.6,29.09,SSE,158,2.7,6.3,26,0.00,,---,0.00,VWS V13.01,2013-01-22 21:54:00,
2013-01-22 16:59:00,14.5,-14.1,29.09,SE,135,4.5,6.3,26,0.00,,---,0.00,VWS V13.01,2013-01-22 21:59:00,
2013-01-22 17:04:00,14.4,-14.2,29.09,NE,45,3.1,3.1,26,0.00,,---,0.00,VWS V13.01,2013-01-22 22:04:00,
2013-01-22 17:10:00,14.2,-14.4,29.09,South,180,2.2,8.3,26,0.00,,---,0.00,VWS V13.01,2013-01-22 22:10:00,
2013-01-22 17:15:00,14.2,-14.4,29.09,SE,135,0.0,8.3,26,0.00,,---,0.00,VWS V13.01,2013-01-22 22:15:00,
2013-01-22 17:20:00,14.2,-14.4,29.09,SE,135,4.9,8.3,26,0.00,,---,0.00,VWS V13.01,2013-01-22 22:20:00,
2013-01-22 17:25:00,13.6,-14.1,29.09,SE,135,2.7,5.4,27,0.00,,---,0.00,VWS V13.01,2013-01-22 22:25:00,
2013-01-22 17:31:00,13.6,-14.1,29.09,NE,45,5.4,5.4,27,0.00,,---,0.00,VWS V13.01,2013-01-22 22:31:00,
2013-01-22 17:36:00,13.5,-14.3,29.09,East,90,0.0,5.4,27,0.00,,---,0.00,VWS V13.01,2013-01-22 22:36:00,
2013-01-22 17:41:00,13.3,-14.4,29.09,ENE,68,3.6,5.4,27,0.00,,---,0.00,VWS V13.01,2013-01-22 22:41:00,
2013-01-22 17:46:00,13.3,-14.4,29.09,NE,45,0.0,5.4,27,0.00,,---,0.00,VWS V13.01,2013-01-22 22:46:00,
2013-01-22 17:52:00,13.1,-14.6,29.09,NE,45,6.3,6.3,27,0.00,,---,0.00,VWS V13.01,2013-01-22 22:52:00,
2013-01-22 17:57:00,13.1,-14.6,29.09,NNE,22,2.2,6.3,27,0.00,,---,0.00,VWS V13.01,2013-01-22 22:57:00,
2013-01-22 18:02:00,13.1,-14.6,29.12,NE,45,4.9,6.3,27,0.00,,---,0.00,VWS V13.01,2013-01-22 23:02:00,
2013-01-22 18:08:00,12.9,-14.8,29.12,NE,45,4.0,4.0,27,0.00,,---,0.00,VWS V13.01,2013-01-22 23:08:00,
2013-01-22 18:13:00,12.9,-14.8,29.12,East,90,0.0,6.3,27,0.00,,---,0.00,VWS V13.01,2013-01-22 23:13:00,
2013-01-22 18:18:00,12.9,-14.8,29.12,South,180,2.7,8.3,27,0.00,,---,0.00,VWS V13.01,2013-01-22 23:18:00,
2013-01-22 18:23:00,12.9,-14.8,29.12,North,0,7.2,7.2,27,0.00,,---,0.00,VWS V13.01,2013-01-22 23:23:00,
2013-01-22 18:28:00,12.9,-14.8,29.12,ESE,112,4.9,7.2,27,0.00,,---,0.00,VWS V13.01,2013-01-22 23:28:00,
2013-01-22 18:33:00,12.9,-14.8,29.12,NE,45,4.0,7.2,27,0.00,,---,0.00,VWS V13.01,2013-01-22 23:33:00,
2013-01-22 18:38:00,12.7,-14.9,29.12,East,90,2.7,7.2,27,0.00,,---,0.00,VWS V13.01,2013-01-22 23:38:00,
2013-01-22 18:44:00,12.6,-15.1,29.12,East,90,4.9,5.4,27,0.00,,---,0.00,VWS V13.01,2013-01-22 23:44:00,
2013-01-22 18:49:00,12.6,-15.1,29.12,East,90,3.6,5.8,27,0.00,,---,0.00,VWS V13.01,2013-01-22 23:49:00,
2013-01-22 18:54:00,12.6,-15.1,29.12,NE,45,2.7,5.8,27,0.00,,---,0.00,VWS V13.01,2013-01-22 23:54:00,
2013-01-22 19:00:00,12.6,-15.1,29.12,East,90,2.2,5.8,27,0.00,,---,0.00,VWS V13.01,2013-01-23 00:00:00,
2013-01-22 19:05:00,12.6,-15.1,29.12,SE,135,0.0,5.8,27,0.00,,---,0.00,VWS V13.01,2013-01-23 00:05:00,
2013-01-22 19:10:00,12.2,-15.4,29.12,East,90,2.2,5.8,27,0.00,,---,0.00,VWS V13.01,2013-01-23 00:10:00,
2013-01-22 19:15:00,12.0,-15.5,29.12,South,180,5.4,5.8,27,0.00,,---,0.00,VWS V13.01,2013-01-23 00:15:00,
2013-01-22 19:20:00,12.0,-15.5,29.12,ESE,112,4.0,7.6,27,0.00,,---,0.00,VWS V13.01,2013-01-23 00:20:00,
2013-01-22 19:25:00,12.0,-15.5,29.12,ESE,112,0.0,3.1,27,0.00,,---,0.00,VWS V13.01,2013-01-23 00:25:00,
2013-01-22 19:32:00,11.8,-15.7,29.12,South,180,2.2,4.9,27,0.00,,---,0.00,VWS V13.01,2013-01-23 00:32:00,
2013-01-22 19:37:00,11.8,-15.7,29.12,SSE,158,0.0,4.9,27,0.00,,---,0.00,VWS V13.01,2013-01-23 00:37:00,
2013-01-22 19:42:00,11.8,-15.7,29.12,SSE,158,0.0,4.9,27,0.00,,---,0.00,VWS V13.01,2013-01-23 00:42:00,
2013-01-22 19:47:00,11.8,-15.7,29.12,SSE,158,0.0,0.0,27,0.00,,---,0.00,VWS V13.01,2013-01-23 00:47:00,
2013-01-22 19:53:00,11.7,-15.9,29.12,SSE,158,2.2,4.0,27,0.00,,---,0.00,VWS V13.01,2013-01-23 00:53:00,
2013-01-22 19:58:00,11.8,-15.7,29.12,SSE,158,3.6,4.9,27,0.00,,---,0.00,VWS V13.01,2013-01-23 00:58:00,
2013-01-22 20:03:00,11.8,-15.7,29.14,SE,135,3.1,4.9,27,0.00,,---,0.00,VWS V13.01,2013-01-23 01:03:00,
2013-01-22 20:08:00,11.7,-15.9,29.14,SE,135,2.7,4.9,27,0.00,,---,0.00,VWS V13.01,2013-01-23 01:08:00,
2013-01-22 20:13:00,11.7,-15.9,29.14,SE,135,2.7,4.9,27,0.00,,---,0.00,VWS V13.01,2013-01-23 01:13:00,
2013-01-22 20:18:00,11.5,-16.0,29.12,ESE,112,0.0,4.9,27,0.00,,---,0.00,VWS V13.01,2013-01-23 01:18:00,
2013-01-22 20:24:00,11.3,-16.2,29.12,ESE,112,2.7,2.7,27,0.00,,---,0.00,VWS V13.01,2013-01-23 01:24:00,
2013-01-22 20:29:00,10.8,-16.6,29.12,ESE,112,0.0,3.1,27,0.00,,---,0.00,VWS V13.01,2013-01-23 01:29:00,
2013-01-22 20:34:00,10.2,-17.1,29.14,ESE,112,3.1,3.1,27,0.00,,---,0.00,VWS V13.01,2013-01-23 01:34:00,
2013-01-22 20:39:00,10.0,-17.3,29.14,ESE,112,0.0,3.1,27,0.00,,---,0.00,VWS V13.01,2013-01-23 01:39:00,
2013-01-22 20:44:00,9.7,-17.6,29.14,ESE,112,0.0,0.0,27,0.00,,---,0.00,VWS V13.01,2013-01-23 01:44:00,
2013-01-22 20:49:00,9.5,-17.7,29.14,ESE,112,0.0,0.0,27,0.00,,---,0.00,VWS V13.01,2013-01-23 01:49:00,
2013-01-22 20:55:00,9.3,-17.9,29.14,ESE,112,0.0,0.0,27,0.00,,---,0.00,VWS V13.01,2013-01-23 01:55:00,
2013-01-22 21:00:00,9.1,-18.0,29.14,ESE,112,0.0,0.0,27,0.00,,---,0.00,VWS V13.01,2013-01-23 02:00:00,
2013-01-22 21:05:00,9.1,-18.0,29.14,ESE,112,3.1,3.1,27,0.00,,---,0.00,VWS V13.01,2013-01-23 02:05:00,
2013-01-22 21:11:00,9.0,-18.2,29.14,ESE,112,0.0,3.1,27,0.00,,---,0.00,VWS V13.01,2013-01-23 02:11:00,
2013-01-22 21:16:00,8.8,-18.4,29.14,ESE,112,0.0,3.1,27,0.00,,---,0.00,VWS V13.01,2013-01-23 02:16:00,
2013-01-22 21:22:00,8.6,-18.5,29.14,ESE,112,0.0,3.1,27,0.00,,---,0.00,VWS V13.01,2013-01-23 02:22:00,
2013-01-22 21:27:00,8.6,-18.5,29.14,ESE,112,0.0,0.0,27,0.00,,---,0.00,VWS V13.01,2013-01-23 02:27:00,
2013-01-22 21:32:00,8.8,-18.4,29.14,ESE,112,0.0,3.6,27,0.00,,---,0.00,VWS V13.01,2013-01-23 02:32:00,
2013-01-22 21:37:00,8.6,-18.5,29.14,ESE,112,0.0,3.6,27,0.00,,---,0.00,VWS V13.01,2013-01-23 02:37:00,
2013-01-22 21:43:00,8.6,-18.5,29.14,ESE,112,2.2,2.2,27,0.00,,---,0.00,VWS V13.01,2013-01-23 02:43:00,
2013-01-22 21:48:00,8.6,-18.5,29.14,ESE,112,0.0,2.2,27,0.00,,---,0.00,VWS V13.01,2013-01-23 02:48:00,
2013-01-22 21:53:00,9.0,-18.2,29.14,ESE,112,0.0,2.2,27,0.00,,---,0.00,VWS V13.01,2013-01-23 02:53:00,
2013-01-22 21:58:00,9.0,-18.2,29.14,ESE,112,0.0,2.2,27,0.00,,---,0.00,VWS V13.01,2013-01-23 02:58:00,
2013-01-22 22:03:00,9.3,-17.9,29.14,ESE,112,0.0,0.0,27,0.00,,---,0.00,VWS V13.01,2013-01-23 03:03:00,
2013-01-22 22:09:00,9.1,-18.0,29.14,ESE,112,0.0,0.0,27,0.00,,---,0.00,VWS V13.01,2013-01-23 03:09:00,
2013-01-22 22:14:00,9.0,-18.2,29.14,ESE,112,0.0,0.0,27,0.00,,---,0.00,VWS V13.01,2013-01-23 03:14:00,
2013-01-22 22:19:00,8.8,-18.4,29.14,ESE,112,0.0,0.0,27,0.00,,---,0.00,VWS V13.01,2013-01-23 03:19:00,
2013-01-22 22:25:00,8.6,-18.5,29.14,ESE,112,0.0,0.0,27,0.00,,---,0.00,VWS V13.01,2013-01-23 03:25:00,
2013-01-22 22:30:00,8.6,-18.5,29.14,ESE,112,0.0,0.0,27,0.00,,---,0.00,VWS V13.01,2013-01-23 03:30:00,
2013-01-22 22:35:00,8.4,-18.7,29.14,ESE,112,0.0,0.0,27,0.00,,---,0.00,VWS V13.01,2013-01-23 03:35:00,
2013-01-22 22:40:00,8.4,-18.7,29.14,ESE,112,0.0,0.0,27,0.00,,---,0.00,VWS V13.01,2013-01-23 03:40:00,
2013-01-22 22:45:00,8.4,-18.7,29.14,ESE,112,0.0,0.0,27,0.00,,---,0.00,VWS V13.01,2013-01-23 03:45:00,
2013-01-22 22:50:00,8.2,-18.8,29.14,East,90,0.0,0.0,27,0.00,,---,0.00,VWS V13.01,2013-01-23 03:50:00,
2013-01-22 22:56:00,8.1,-19.0,29.14,East,90,0.0,0.0,27,0.00,,---,0.00,VWS V13.01,2013-01-23 03:56:00,
2013-01-22 23:02:00,8.1,-19.0,29.14,East,90,0.0,0.0,27,0.00,,---,0.00,VWS V13.01,2013-01-23 04:02:00,
2013-01-22 23:07:00,8.1,-19.0,29.14,East,90,0.0,0.0,27,0.00,,---,0.00,VWS V13.01,2013-01-23 04:07:00,
2013-01-22 23:12:00,8.6,-18.5,29.14,North,0,0.0,3.6,27,0.00,,---,0.00,VWS V13.01,2013-01-23 04:12:00,
2013-01-22 23:18:00,8.2,-18.8,29.14,North,0,0.0,3.6,27,0.00,,---,0.00,VWS V13.01,2013-01-23 04:18:00,
2013-01-22 23:23:00,8.1,-19.0,29.14,North,0,0.0,0.0,27,0.00,,---,0.00,VWS V13.01,2013-01-23 04:23:00,
2013-01-22 23:28:00,8.2,-18.8,29.14,North,0,0.0,0.0,27,0.00,,---,0.00,VWS V13.01,2013-01-23 04:28:00,
2013-01-22 23:33:00,8.1,-19.0,29.14,North,0,0.0,0.0,27,0.00,,---,0.00,VWS V13.01,2013-01-23 04:33:00,
2013-01-22 23:39:00,8.1,-19.0,29.14,North,0,0.0,2.7,27,0.00,,---,0.00,VWS V13.01,2013-01-23 04:39:00,
2013-01-22 23:44:00,8.1,-19.0,29.14,North,0,0.0,0.0,27,0.00,,---,0.00,VWS V13.01,2013-01-23 04:44:00,
2013-01-22 23:49:00,7.9,-19.1,29.14,North,0,0.0,0.0,27,0.00,,---,0.00,VWS V13.01,2013-01-23 04:49:00,
2013-01-22 23:55:00,7.9,-19.1,29.14,North,0,0.0,0.0,27,0.00,,---,0.00,VWS V13.01,2013-01-23 04:55:00,